Starlink 3895

operational
NORAD ID: 52583 Int'l Des: 2022-051 Owner: SPXS Country: US Constellation: starlink
LEOCIRCULAR

关于 Starlink 3895

正在加载描述...

实时位置

正在加载3D地球...

即将过境

高度历史

Altitude vs Time

uPlot chart will show altitude changes over time

两行轨道根数

1 52583U 22051AZ 26095.43151848 .00000118 00000-0 25496-4 0 9999
2 52583 53.2188 359.0722 0001177 84.8914 275.2213 15.08843856215626
Epoch: Apr 5, 2026 • Age: 12 hours

当前状态

高度 559.1 km
速度 7.58 km/s
星下点 -53.33°S, 95.49°E
发射日期 May 13, 2022
运行时间 3.8 years
类型 internet

技术详情

分类 Payload
质量 297.00 kg
干质量 275.00 kg
总质量 297.00 kg
长度 0.20 m
直径 2.80 m
跨度 9.00 m
形状 Box + pan
制造商 SPXS
平台类型 Starlink
阶段状态 In Orbit
所有者/国家 SPXS/US

大型星座

Loading constellations...